Track COSMOS 2236 (GLONASS) now! COSMOS 2236 (GLONASS) is classified as:
1 22513U 93010B 21018.27516917 .00000022 00000-0 00000-0 0 9990 2 22513 64.1212 138.0746 0004590 98.8144 265.5391 2.13104649217272